User: anonymous   Login
Location: Newark
(45.9456°N, 15.4064°E)
Time: 19:50:10
(UTC+00:00)
Language:

S-56A Canister/Altair - Orbit

View from above orbital plane
View from above orbital plane
View from above satellite
View from above satellite

Ground track
Ground track

The orbit data is extracted from the following two-line orbital elements,

1    82U 61004B   20024.38464872 -.00000023 +00000-0 +30358-4 0  9990
2    82 038.8577 015.5388 1173560 103.4323 269.9623 12.26059723790009
Epoch (UTC): 24 January 2020 09:13:53
Eccentricity: 0.1173560
inclination: 38.8577°
perigee height: 634 km
apogee height: 2498 km
right ascension of ascending node: 15.5388°
argument of perigee: 103.4323°
revolutions per day: 12.26059723
mean anomaly at epoch: 269.9623°
orbit number at epoch: 79000

The dashed part of the orbit path shows where the satellite is in the earth's shadow,  

DLR